PROPCUBE 1 (FLORA)

Last updated on Fri Aug 29 2025 00:03:48 GMT+0000 (Coordinated Universal Time)

1 40976U 15058N 25239.87312064 .00003069 00000+0 29328-3 0 9991 2 40976 64.7745 122.8907 0151916 172.4536 187.8914 14.86883536 72617
UTC large
Height (km)
Speed (km/s)
/
Latitude / Longitude
Inclination (degrees)
Orbital Period (minutes)
Azimuth
Elevation
Range (km)
Doppler Factor

Next 0 passes for location: London (51.5072 / 0.1276)

Sorry there are no passes over London.